Wind_Speed
36 37 37 38 39 39 40 40 40 40 40 41 42 43 44 45 45 46 47 48 50 50 52 53 53 54 54 54 55 56 58 59 60 60 60 60 59 59
37 37 38 39 40 40 40 41 41 41 40 42 43 43 44 45 46 46 48 49 50 51 52 53 54 54 55 55 57 58 60 61 61 61 60 60 59 60
38 38 38 39 40 40 41 41 41 42 42 42 43 44 45 45 46 47 48 49 51 52 53 53 54 55 56 57 59 60 61 61 61 61 60 60 59 60
38 39 39 39 39 40 41 41 42 43 43 42 43 44 45 46 46 47 48 50 52 52 53 53 54 55 57 58 60 61 61 61 60 60 59 60 60 60
38 38 39 39 40 41 42 42 42 43 43 43 43 44 45 46 46 47 49 51 52 52 53 54 55 56 58 59 60 60 61 61 60 59 59 59 61 61
38 38 39 40 41 41 42 42 43 43 43 43 44 44 45 46 47 48 49 51 51 52 53 54 56 57 59 60 60 60 60 60 59 59 60 60 61 61
39 39 39 40 41 41 41 42 42 42 43 44 44 45 45 47 48 49 50 50 51 53 54 55 57 58 59 59 60 60 60 60 60 60 61 61 61 60
39 38 39 39 40 41 41 42 42 42 43 44 44 45 46 47 48 49 50 50 52 53 54 56 58 58 59 59 59 60 60 60 60 60 60 60 59 58
39 39 39 40 40 40 41 42 42 42 43 44 44 45 46 47 48 49 50 51 53 54 56 57 57 58 58 59 60 60 60 59 59 59 60 59 58 56
38 38 39 39 39 40 40 41 41 42 43 44 45 46 47 47 48 49 50 52 54 56 57 56 56 57 58 59 59 59 58 58 59 59 58 57 56 53
38 38 38 39 39 40 40 41 41 42 43 44 45 46 46 47 48 49 51 53 54 55 56 55 55 56 58 59 59 58 57 58 58 58 57 55 53 49
38 38 38 39 39 40 40 41 41 42 43 43 44 45 46 47 49 50 52 54 55 54 54 56 56 57 57 57 57 56 57 57 57 56 54 52 49 45
37 37 38 38 39 39 40 40 41 41 42 43 44 44 46 47 49 51 53 54 55 54 55 56 56 57 56 56 56 56 56 56 55 53 51 49 45 42
36 37 37 38 38 38 39 39 40 40 41 42 43 44 46 48 50 51 53 53 54 54 55 56 56 56 55 54 54 54 54 54 52 51 49 45 42 40
36 36 36 37 37 37 38 38 39 39 40 42 43 44 46 48 50 51 52 53 54 55 55 55 55 54 53 53 52 51 51 51 50 48 46 42 39 37
35 35 35 35 36 37 37 37 38 39 40 42 43 45 47 49 50 51 52 52 53 54 55 54 53 52 52 51 50 49 48 47 46 45 42 39 37 35
32 33 34 34 35 35 36 37 38 39 40 42 44 45 47 48 50 51 51 52 52 53 53 53 52 51 50 49 48 47 46 45 44 42 39 37 35 34
32 32 32 33 33 34 36 37 38 39 40 42 44 45 47 48 50 50 50 51 52 51 51 50 49 49 49 48 47 46 44 43 42 39 37 35 34 32
31 31 31 32 33 34 35 36 37 39 40 42 43 45 47 48 50 50 50 51 51 50 49 48 47 46 46 46 44 42 41 41 39 37 35 33 31 29
30 30 31 32 33 34 35 36 37 38 40 42 44 45 47 49 50 50 49 49 49 48 46 45 44 44 43 42 41 39 39 38 36 34 32 31 29 26
30 30 31 32 32 33 34 35 36 38 41 43 44 46 48 49 49 48 48 47 46 45 43 42 42 41 41 40 38 37 36 35 32 31 30 28 27 25
30 30 30 31 32 33 33 35 37 39 41 43 45 47 48 48 47 46 45 44 44 42 41 40 39 39 38 37 36 34 34 32 30 28 26 24 22 21
29 29 30 31 32 32 34 36 37 40 42 44 45 46 46 45 45 44 43 42 41 40 39 38 37 37 36 34 32 31 31 30 28 26 24 22 20 18
Wind_Direction
276 280 283 285 288 290 291 294 297 298 299 301 301 302 303 305 305 306 307 308 309 310 311 311 310 310 311 311 311 312 312 312 311 310 310 310 310 309
276 280 282 285 287 288 291 294 296 297 299 300 301 302 303 304 305 306 307 308 309 310 311 310 310 311 311 311 311 312 312 312 311 311 311 311 310 311
276 280 282 284 286 289 292 294 295 297 298 299 300 301 303 303 304 306 307 308 309 310 310 310 310 311 311 311 312 312 313 313 313 312 312 312 312 312
276 279 281 283 286 288 291 293 294 296 298 299 300 301 303 304 305 305 306 308 309 309 309 310 310 311 311 312 312 313 314 314 314 314 313 313 312 312
275 277 280 283 286 288 290 291 293 296 297 299 300 302 303 304 305 306 307 308 309 310 310 311 311 312 312 313 314 315 315 315 315 315 314 314 314 313
274 276 279 282 285 286 288 290 292 295 297 298 300 301 302 303 304 306 308 309 310 311 311 311 312 313 313 314 315 315 315 315 315 315 315 315 315 315
273 276 279 281 283 285 287 289 292 294 296 298 300 301 302 303 304 306 308 309 310 311 311 312 313 313 314 315 315 316 316 316 316 316 316 316 317 317
273 275 278 280 282 284 287 290 292 294 296 298 300 301 302 304 305 307 308 309 310 310 311 312 313 314 315 315 316 316 316 316 316 317 317 318 318 318
273 274 277 279 282 284 287 289 292 294 296 298 300 301 303 304 306 308 309 309 310 311 312 312 313 314 315 316 316 316 316 317 317 318 318 319 319 319
272 274 277 280 282 284 287 289 292 294 297 298 300 301 303 305 307 308 309 310 311 312 313 313 314 314 315 316 317 317 317 317 318 319 319 320 320 320
271 274 277 279 282 285 287 290 292 294 296 298 300 302 304 305 307 309 310 311 312 313 313 313 314 315 316 317 317 318 318 318 319 320 321 321 322 322
271 273 276 280 282 284 287 289 292 294 296 298 300 302 304 306 308 309 311 312 313 313 313 314 315 315 316 317 317 318 318 319 320 321 322 323 323 323
271 274 277 279 281 284 287 290 292 294 297 299 301 304 306 307 309 310 312 313 314 314 314 314 315 315 316 317 318 318 319 320 322 322 323 324 324 324
271 274 276 279 281 284 287 290 293 295 298 300 303 305 307 308 310 312 313 314 314 314 315 315 315 316 317 318 318 319 320 321 322 323 325 325 325 326
271 274 277 280 283 286 289 291 294 297 299 302 304 306 308 310 311 313 313 313 314 315 315 315 316 317 318 319 319 320 320 321 323 324 325 326 326 326
272 275 278 281 284 288 290 292 295 298 300 303 305 306 309 311 312 313 314 314 314 315 315 316 317 318 320 320 321 321 322 322 323 325 326 326 326 326
271 275 279 282 285 288 291 294 296 299 302 304 306 308 310 312 313 314 315 315 315 315 316 316 317 319 320 322 322 323 323 324 325 326 326 326 326 326
273 277 281 284 286 289 292 295 298 301 303 305 307 309 311 312 313 314 315 315 316 316 316 317 318 319 321 322 323 323 324 325 326 327 326 327 327 328
274 278 281 284 288 291 294 296 300 302 305 307 308 310 312 313 314 315 315 316 317 317 317 318 319 320 322 323 324 324 324 326 327 328 329 329 330 332
274 278 282 285 289 292 295 298 301 303 306 308 310 311 313 314 314 315 316 317 318 318 319 319 320 322 323 324 325 325 326 328 329 330 331 332 334 335
274 278 282 286 289 293 296 299 302 304 307 310 312 313 314 314 315 315 316 317 319 319 320 320 322 323 325 326 326 327 328 329 330 332 333 334 336 339
275 279 283 286 290 294 297 300 303 306 309 312 313 314 315 315 316 316 317 318 320 320 321 322 323 324 326 327 328 329 330 332 333 335 336 338 340 344
274 278 283 287 291 294 298 301 305 308 310 312 313 314 315 316 316 317 317 319 320 321 322 323 324 325 326 328 329 331 333 335 336 338 340 343 346 350
Height
5768 5766 5765 5763 5761 5759 5756 5753 5750 5746 5742 5737 5732 5727 5722 5716 5711 5705 5699 5693 5687 5680 5673 5666 5659 5652 5645 5638 5630 5623 5615 5607 5598 5590 5581 5573 5564 5556
5759 5758 5757 5755 5752 5750 5747 5744 5741 5737 5734 5729 5724 5718 5713 5708 5702 5696 5690 5684 5677 5670 5663 5656 5649 5641 5634 5627 5619 5611 5603 5594 5585 5576 5567 5558 5550 5541
5751 5749 5748 5746 5744 5741 5739 5735 5732 5728 5725 5720 5715 5710 5705 5699 5693 5687 5681 5675 5668 5661 5653 5646 5638 5631 5623 5615 5607 5599 5590 5581 5571 5562 5553 5544 5535 5526
5742 5741 5739 5737 5735 5733 5730 5727 5723 5719 5715 5712 5707 5701 5696 5690 5684 5678 5672 5665 5658 5651 5643 5635 5628 5620 5612 5604 5595 5586 5577 5567 5558 5549 5539 5531 5522 5512
5733 5732 5730 5729 5727 5724 5721 5718 5714 5710 5706 5702 5698 5692 5687 5681 5675 5669 5662 5655 5648 5640 5633 5625 5617 5609 5601 5592 5583 5574 5564 5555 5546 5536 5527 5517 5508 5498
5724 5723 5722 5720 5718 5715 5712 5708 5705 5701 5697 5693 5688 5683 5677 5671 5666 5659 5653 5645 5638 5630 5622 5614 5606 5598 5589 5580 5571 5562 5552 5543 5533 5524 5514 5504 5494 5484
5715 5714 5712 5710 5708 5705 5703 5699 5695 5692 5688 5683 5679 5674 5668 5662 5656 5650 5643 5636 5628 5620 5612 5604 5595 5587 5578 5568 5559 5549 5540 5530 5521 5511 5501 5491 5481 5471
5705 5704 5703 5701 5699 5696 5693 5690 5686 5683 5678 5674 5669 5664 5659 5652 5646 5640 5633 5627 5620 5612 5603 5594 5584 5575 5566 5557 5548 5538 5528 5518 5509 5499 5489 5479 5468 5458
5696 5695 5693 5691 5689 5687 5684 5681 5677 5673 5669 5665 5660 5655 5649 5643 5637 5630 5623 5616 5609 5601 5592 5583 5573 5564 5555 5545 5536 5526 5516 5506 5497 5487 5477 5467 5457 5447
5686 5685 5684 5682 5680 5677 5675 5671 5668 5664 5660 5655 5650 5645 5639 5633 5627 5620 5613 5606 5598 5589 5580 5573 5563 5553 5544 5534 5525 5515 5505 5495 5486 5475 5465 5455 5445 5436
5676 5675 5674 5673 5671 5668 5665 5662 5659 5655 5650 5646 5641 5635 5629 5623 5617 5610 5603 5595 5588 5579 5569 5561 5553 5544 5534 5524 5514 5504 5494 5484 5475 5465 5455 5445 5435 5426
5667 5666 5665 5663 5661 5658 5656 5653 5649 5645 5641 5636 5631 5626 5620 5613 5607 5600 5593 5585 5577 5569 5560 5551 5542 5533 5524 5514 5503 5493 5483 5474 5464 5454 5444 5435 5426 5418
5657 5657 5656 5654 5651 5649 5646 5643 5640 5636 5632 5627 5622 5616 5610 5604 5597 5590 5582 5574 5566 5557 5549 5540 5531 5521 5512 5503 5493 5483 5474 5464 5454 5444 5435 5426 5417 5410
5648 5647 5646 5644 5642 5640 5637 5634 5630 5627 5622 5618 5613 5607 5601 5594 5587 5579 5571 5563 5555 5547 5538 5529 5520 5511 5502 5492 5483 5473 5463 5455 5445 5436 5427 5418 5410 5402
5639 5638 5637 5635 5633 5630 5628 5625 5621 5617 5613 5608 5603 5597 5591 5584 5577 5569 5561 5552 5544 5536 5527 5518 5509 5500 5491 5482 5474 5465 5456 5446 5437 5428 5420 5411 5404 5397
5630 5629 5627 5626 5624 5622 5619 5616 5612 5608 5604 5599 5594 5588 5581 5575 5567 5560 5551 5543 5534 5525 5516 5508 5499 5491 5482 5473 5464 5455 5447 5439 5430 5421 5413 5405 5398 5391
5621 5620 5619 5617 5615 5613 5610 5607 5603 5599 5595 5590 5584 5578 5572 5565 5557 5550 5542 5533 5525 5516 5507 5498 5489 5481 5473 5465 5456 5447 5439 5431 5423 5415 5407 5399 5392 5386
5612 5611 5610 5609 5607 5604 5601 5598 5594 5590 5586 5581 5575 5569 5562 5555 5548 5540 5532 5524 5515 5507 5498 5489 5481 5473 5465 5457 5449 5440 5432 5424 5416 5409 5401 5394 5387 5380
5604 5603 5602 5600 5598 5596 5593 5589 5586 5581 5577 5571 5566 5559 5553 5545 5538 5530 5522 5514 5505 5497 5489 5480 5473 5465 5457 5450 5442 5434 5426 5418 5410 5403 5396 5389 5383 5376
5595 5594 5593 5592 5590 5587 5584 5581 5577 5573 5568 5562 5557 5550 5543 5536 5528 5520 5512 5504 5496 5488 5480 5472 5465 5458 5450 5443 5435 5428 5420 5413 5405 5398 5391 5385 5379 5373
5586 5586 5585 5583 5581 5578 5575 5572 5568 5564 5559 5553 5547 5540 5533 5526 5518 5510 5503 5495 5487 5479 5472 5465 5458 5451 5443 5436 5429 5422 5415 5408 5401 5395 5388 5382 5376 5371
5578 5577 5576 5574 5572 5570 5567 5563 5560 5555 5550 5544 5537 5531 5523 5516 5508 5501 5494 5486 5479 5472 5465 5458 5451 5444 5438 5431 5424 5417 5410 5404 5397 5391 5386 5380 5375 5370
5570 5569 5568 5566 5564 5561 5558 5555 5551 5546 5540 5534 5528 5521 5513 5506 5499 5492 5486 5479 5472 5465 5459 5452 5445 5439 5432 5426 5419 5413 5407 5400 5394 5389 5384 5378 5374 5369